Regional Weather Roundup
Issued by NWS Charleston, SC

Current Version | Previous Version | Graphics & Text | Print | Product List | Glossary On
Versions: 1 2 3 4 5 6 7 8 9 10 11 12 13 14 15 16 17 18 19 20 21 22 23 24 25 26 27 28 29 30 31 32 33 34 35 36 37 38 39 40 41 42 43 44 45 46 47 48 49 50
000 ASUS42 KCHS 231228 RWRCHS REGIONAL WEATHER ROUNDUP NATIONAL WEATHER SERVICE CHARLESTON SC 800 AM EDT TUE AUG 23 2016 NOTE: "FAIR" INDICATES FEW OR NO CLOUDS BELOW 12,000 FEET WITH NO SIGNIFICANT WEATHER AND/OR OBSTRUCTIONS TO VISIBILITY. NOT ALL STATIONS ARE QUALITY CONTROLLED. USE DATA WITH CAUTION... ESPECIALLY DEWPOINT OBSERVATIONS. SCZ027-030-031-034>040-042>050-231300- ...SOUTHEAST SOUTH CAROLINA... CITY SKY/WX TMP DP RH WIND PRES REMARKS N CHARLESTON PTSUNNY 80 75 84 NE6 30.21R 6HR MIN TEMP: 76; 6HR MAX TEMP: 80; WATERFRONT PRK N/A 81 77 88 NE7 30.18R MOUNT PLEASANT FAIR 79 75 89 CALM 30.22R JOHNS ISLAND PTSUNNY 81 79 94 CALM 30.21R PINOPOLIS N/A 79 77 94 E7 30.15R MONCKS CORNER FAIR 75 73 94 NE6 30.23R SUMMERVILLE FAIR 77 77 100 CALM 30.23R BEAUFORT MCAS MOSUNNY 81 76 84 NE7 30.20R 6HR MIN TEMP: 78; 6HR MAX TEMP: 82; BEAUFORT ARPT FAIR 81 77 89 NE6 30.20R HILTON HEAD IS PTSUNNY 84 73 70 NE6 30.20R HX 91 WALTERBORO MOSUNNY 81 81 100 NE6 30.23R HX 91 ALLENDALE CLOUDY 77 73 88 CALM 30.21R ...SOUTHERN MIDLANDS AND PEE DEE... CITY SKY/WX TMP DP RH WIND PRES REMARKS GEORGETOWN FAIR 75 73 94 CALM 30.24R KINGSTREE FAIR 73 68 83 CALM 30.24R ORANGEBURG MOSUNNY 73 68 84 NE5 30.23R 6HR MIN TEMP: 72; 6HR MAX TEMP: 75; BARNWELL NOT AVBL AIKEN PTSUNNY 72 66 83 NE5 30.28R MANNING FAIR 73 70 88 NE3 30.24R COLUMBIA MOSUNNY 76 64 66 E5 30.24R 6HR MIN TEMP: 71; 6HR MAX TEMP: 78; SUMTER SUNNY 71 66 83 NE3 30.22R 6HR MIN TEMP: 69; 6HR MAX TEMP: 74; FLORENCE MOSUNNY 73 63 70 NE7 30.25R 6HR MIN TEMP: 69; 6HR MAX TEMP: 73; MYRTLE BEACH MOSUNNY 75 64 69 NE5 30.25R N MYRTLE BEACH PTSUNNY 75 71 87 CALM 30.23R 6HR MIN TEMP: 73; 6HR MAX TEMP: 75; $$ GAZ063-065-086>088-099>101-113>116-118-119-134>141-150-231300- ...SOUTHEAST GEORGIA... CITY SKY/WX TMP DP RH WIND PRES REMARKS SAVANNAH ARPT CLOUDY 80 76 87 CALM 30.21R THUNDER 6HR MIN TEMP: 79; 6HR MAX TEMP: 81; 6HR PCP: TRACE; HUNTER AAF CLOUDY 81 81 100 NW8 30.18R THUNDER HX 91 6HR MIN TEMP: 79; 6HR MAX TEMP: 81; FORT STEWART MOSUNNY 78 76 92 NE7 30.18R 6HR MIN TEMP: 77; 6HR MAX TEMP: 79; STATESBORO MOSUNNY 79 76 92 CALM 30.21R SYLVANIA SUNNY N/A N/A N/A CALM 30.22R CLAXTON FAIR 80 79 96 NE6 30.21R ...CSRA...CENTRAL AND FAR SOUTHEAST GEORGIA... CITY SKY/WX TMP DP RH WIND PRES REMARKS THOMSON NOT AVBL AUGUSTA-BUSH PTSUNNY 77 73 87 N3 30.21R 6HR MIN TEMP: 73; 6HR MAX TEMP: 77; AUGUSTA-DANIEL CLOUDY N/A N/A N/A NE6 30.23R SWAINSBORO FAIR 79 73 83 E6 30.22R VIDALIA SUNNY 81 81 100 E7 30.20R HX 91 EASTMAN CLOUDY 80 80 100 E5 30.22R HAZLEHURST FAIR 81 81 100 CALM 30.19R HX 91 ALMA FOG 77 77 100 E3 30.18R VSB 1/4 6HR MIN TEMP: 75; 6HR MAX TEMP: 78; WAYCROSS N/A 82 80 96 CALM 30.18R HX 93 JESUP FAIR 81 79 94 E3 30.19R BAXLEY FAIR 81 81 100 E3 30.19R HX 91 BRUNSWICK CLOUDY 79 79 100 CALM 30.18S THUNDER FOG SAINT SIMONS CLOUDY 82 79 90 CALM 30.17R HX 92 6HR MIN TEMP: 81; 6HR MAX TEMP: 84; 6HR PCP: 0.02; $$ SCZ027-028-034-036>038-045-046-048>050-GAZ119-141-231300- ...LAKE AND SUPPLEMENTAL COASTAL OBSERVATIONS... STATION/POSITION TIME TEMP WIND PRES WAVE SWELL AIR SEA DIR/SP/G HT/PER HT/PER/DIR (UTC) (F) (DEG/KT/KT) (MB) (FT/S) (FT/S/D) WINYAH BAY 1100 76 340/ 1 1022.0 LAKE MURRAY 1200 75 30/ 2/ 5 1023.7R ACE BASIN NERRS 1100 78 CALM 1022.0S FORT PULASKI 1200 84 87 80/ 13/ 14 1022.8R SAPELO ISLAND 1200 83 CALM 1022.0R $$ ANZ835-935-AMZ111-154-330-350-352-354-370-450-454-472-231300- ...C-MAN AND BUOY OBSERVATIONS... STATION/POSITION TIME TEMP WIND PRES WAVE SWELL AIR SEA DIR/SP/G HT/PER HT/PER/DIR (UTC) (F) (DEG/KT/KT) (MB) (FT/S) (FT/S/D) BUOY 41004 1150 84 85 60/ 12/ 14 1022.1R 2/ 3 2/120/ 8 BUOY 41008 1150 83 85 100/ 6/ 8 1021.6R 1/12 2/ 20/12 FOLLY BEACH CMAN 1200 84 90/ 11/ 13 1022.9R CAPERS NEARSHORE 1208 84 86 80/ 12/ 16 1022.6R FRIPP NEARSHORE 1208 85 87 90/ 12/ 16 1021.9R STATION/POSITION TIME TEMP WIND PRES WAVE SWELL AIR SEA DIR/SP/G HT/PER HT/PER/DIR (UTC) (F) (DEG/KT/KT) (MB) (FT/S) (FT/S/D) 5E ST. MARYS GA 1201 84 N/A 1/ 7 FRYING PAN BUOY 1200 83 85 70/ 12/ 16 1022.8R BUOY 41025 1150 81 85 30/ 10/ 14 1023.8R 3/ 8 3/ 60/ 8 CAPE LOOKOUT NC 1200 81 60/ 12/ 13 1024.0R BUOY 41002 1150 83 85 50/ 16/ 19 1020.9R 4/ 4 2/ 80/ 8 BUOY 41010 NOT AVBL ST AUGUSTINE FL 1200 83 83 80/ 7/ 7 1022.1R $$

USA.gov is the U.S. government's official web portal to all federal, state and local government web resources and services.